Погода в Кастильоне-ди-Сицилии

Италия     37°52′49″N   15°07′23″E
темп.,
°C
ветер,
м/с
пор.,
м/с
влажн.,
%
обл.,
%
осадки,
мм/ч
давл.,
гПа
погр.,
м
27 сентября, пн
пн2723:00+20ююз324994 0.1 102120
02:00+20з114234 0.1 102111
05:00+19з22465 0.0 102012
08:00+21зюз114382 0.0 101913
11:00+27с2232100 0.0 1019627
14:00+27ссв4239100 0.0 1018644
17:00+25ссв2145100 0.1 1017436
20:00+18зсз2180100 0.6 101831
28 сентября, вт
вт2823:00+18зсз2276100 0.0 101832
02:00+17з338495 0.0 101974
05:00+18зсз349388 0.0 1017175
08:00+17з23906 0.1 1018167
11:00+23ссз33495 0.0 1018970
14:00+25ссз44460 0.0 10171327
17:00+21ссз436512 0.0 1017746
20:00+16зсз22949 0.0 101933
29 сентября, ср
ср2923:00+16з22885 0.0 102023
02:00+15зюз22915 0.0 101924
05:00+15з229299 0.0 101923
08:00+17з228719 0.0 1020160
11:00+21ссз326861 0.1 1020969
14:00+22с4462100 0.2 10191106
17:00+20ссз446914 0.3 1019754
20:00+15зсз229832 0.4 102169
30 сентября, чт
чт3023:00+15з229310 0.0 102163
02:00+14з22870 0.1 102120
05:00+13зюз22890 0.0 102022
08:00+15з22765 0.0 102082
11:00+20с3255100 0.0 10201064
14:00+21с435770 0.1 10201171
17:00+19ссз3368100 0.3 1019746
20:00+15зсз2296100 0.4 102046
1 октября, пт
пт123:00+14зсз229568 0.0 1021136
02:00+13з22895 0.0 102024
05:00+13зюз22770 0.0 102015
08:00+14зюз22690 0.0 102066
11:00+20ссз33550 0.0 10191153
14:00+21с445314 0.3 10181300
17:00+19ссз44629 0.6 1018986
20:00+14з22935 0.9 101925